TimeAKST,TemperatureF,Dew PointF,Humidity,Sea Level PressureIn,VisibilityMPH,Wind Direction,Wind SpeedMPH,Gust SpeedMPH,PrecipitationIn,Events,Conditions,WindDirDegrees,DateUTC
12:16 AM,37.4,21.2,52,29.30,10.0,East,3.5,-,N/A,,Overcast,80,2013-03-01 09:16:00
12:56 AM,37.4,21.2,52,29.32,10.0,NNE,6.9,-,N/A,,Overcast,20,2013-03-01 09:56:00
1:16 AM,37.4,19.4,48,29.33,10.0,Calm,Calm,-,N/A,,Overcast,0,2013-03-01 10:16:00
1:36 AM,37.4,19.4,48,29.34,10.0,SSE,5.8,-,N/A,,Overcast,150,2013-03-01 10:36:00
1:56 AM,37.4,19.4,48,29.35,10.0,ESE,10.4,16.1,N/A,,Overcast,120,2013-03-01 10:56:00
2:16 AM,37.4,19.4,48,29.37,10.0,East,8.1,-,N/A,,Overcast,100,2013-03-01 11:16:00
2:36 AM,37.4,19.4,48,29.38,10.0,ESE,9.2,-,N/A,,Overcast,110,2013-03-01 11:36:00
3:16 AM,35.6,21.2,56,29.39,10.0,East,6.9,-,N/A,,Mostly Cloudy,90,2013-03-01 12:16:00
3:36 AM,35.6,23.0,60,29.40,10.0,ESE,4.6,-,N/A,,Mostly Cloudy,110,2013-03-01 12:36:00
3:56 AM,35.6,21.2,56,29.40,10.0,Calm,Calm,-,N/A,,Mostly Cloudy,0,2013-03-01 12:56:00
4:16 AM,33.8,19.4,56,29.42,10.0,Calm,Calm,-,N/A,,Overcast,0,2013-03-01 13:16:00
4:36 AM,33.8,21.2,60,29.43,10.0,ENE,5.8,-,N/A,,Overcast,70,2013-03-01 13:36:00
4:56 AM,35.6,21.2,56,29.45,10.0,ENE,5.8,-,N/A,,Overcast,70,2013-03-01 13:56:00
5:16 AM,33.8,23.0,65,29.46,10.0,East,8.1,-,N/A,,Overcast,100,2013-03-01 14:16:00
5:36 AM,33.8,24.8,70,29.48,10.0,East,8.1,-,N/A,,Overcast,80,2013-03-01 14:36:00
5:56 AM,32.0,26.6,80,29.49,5.0,North,5.8,-,N/A,,Overcast,350,2013-03-01 14:56:00
6:16 AM,32.0,26.6,80,29.50,5.0,Calm,Calm,-,N/A,,Overcast,0,2013-03-01 15:16:00
6:36 AM,32.0,28.4,87,29.51,5.0,Calm,Calm,-,N/A,,Overcast,0,2013-03-01 15:36:00
6:56 AM,32.0,26.6,80,29.53,7.0,Calm,Calm,-,N/A,,Overcast,0,2013-03-01 15:56:00
7:16 AM,30.2,24.8,80,29.54,7.0,ESE,4.6,-,N/A,,Overcast,120,2013-03-01 16:16:00
7:24 AM,30.2,26.6,86,29.55,3.0,ENE,4.6,-,N/A,Snow,Light Snow,60,2013-03-01 16:24:00
7:36 AM,30.2,26.6,86,29.55,3.0,ENE,3.5,-,N/A,,Overcast,70,2013-03-01 16:36:00
7:56 AM,30.2,26.6,86,29.57,2.0,East,3.5,-,N/A,,Overcast,80,2013-03-01 16:56:00
8:16 AM,30.2,26.6,86,29.58,2.0,Calm,Calm,-,N/A,,Overcast,0,2013-03-01 17:16:00
8:36 AM,30.2,28.4,93,29.59,2.0,Calm,Calm,-,0.01,,Overcast,0,2013-03-01 17:36:00
8:56 AM,30.2,26.6,86,29.60,6.0,Calm,Calm,-,0.01,,Overcast,0,2013-03-01 17:56:00
9:16 AM,30.2,26.6,86,29.62,6.0,South,3.5,-,0.01,,Overcast,170,2013-03-01 18:16:00
9:36 AM,30.2,28.4,93,29.63,6.0,East,4.6,-,0.01,,Overcast,90,2013-03-01 18:36:00
9:56 AM,30.2,28.4,93,29.65,6.0,Calm,Calm,-,0.01,,Overcast,0,2013-03-01 18:56:00
10:16 AM,30.2,28.4,93,29.65,6.0,Calm,Calm,-,N/A,,Overcast,0,2013-03-01 19:16:00
10:36 AM,30.2,28.4,93,29.68,6.0,Calm,Calm,-,N/A,,Overcast,0,2013-03-01 19:36:00
10:56 AM,30.2,30.2,100,29.69,1.5,SSW,3.5,-,0.01,,Overcast,210,2013-03-01 19:56:00
11:16 AM,30.2,28.4,93,29.71,1.5,Calm,Calm,-,0.01,,Overcast,0,2013-03-01 20:16:00
11:36 AM,30.2,28.4,93,29.72,0.5,Calm,Calm,-,0.02,,Overcast,0,2013-03-01 20:36:00
11:56 AM,30.2,28.4,93,29.74,0.5,Calm,Calm,-,0.05,,Overcast,0,2013-03-01 20:56:00
12:16 PM,32.0,28.4,87,29.76,1.5,Calm,Calm,-,N/A,,Overcast,0,2013-03-01 21:16:00
12:36 PM,32.0,30.2,93,29.77,1.5,Calm,Calm,-,N/A,,Overcast,0,2013-03-01 21:36:00
12:56 PM,32.0,30.2,93,29.79,3.0,West,4.6,-,N/A,,Overcast,270,2013-03-01 21:56:00
1:16 PM,32.0,30.2,93,29.81,3.0,WSW,5.8,-,N/A,,Overcast,250,2013-03-01 22:16:00
1:36 PM,32.0,30.2,93,29.82,3.0,West,4.6,-,N/A,,Overcast,260,2013-03-01 22:36:00
1:56 PM,33.8,30.2,87,29.83,3.0,WNW,5.8,-,N/A,,Mostly Cloudy,290,2013-03-01 22:56:00
2:16 PM,33.8,30.2,87,29.83,3.0,Calm,Calm,-,N/A,,Mostly Cloudy,0,2013-03-01 23:16:00
2:36 PM,33.8,30.2,87,29.85,3.0,NW,5.8,-,N/A,,Mostly Cloudy,310,2013-03-01 23:36:00
2:56 PM,33.8,30.2,87,29.85,3.0,West,4.6,-,N/A,,Mostly Cloudy,260,2013-03-01 23:56:00
3:16 PM,32.0,30.2,93,29.86,3.0,Calm,Calm,-,N/A,,Mostly Cloudy,0,2013-03-02 00:16:00
3:36 PM,33.8,30.2,87,29.87,3.0,Calm,Calm,-,N/A,,Mostly Cloudy,0,2013-03-02 00:36:00
3:56 PM,33.8,30.2,87,29.86,2.0,Calm,Calm,-,N/A,,Overcast,0,2013-03-02 00:56:00
4:16 PM,33.8,30.2,87,29.87,6.0,Calm,Calm,-,N/A,,Mostly Cloudy,0,2013-03-02 01:16:00
4:36 PM,33.8,32.0,93,29.88,6.0,Calm,Calm,-,N/A,,Mostly Cloudy,0,2013-03-02 01:36:00
4:56 PM,33.8,32.0,93,29.88,0.8,Calm,Calm,-,0.02,,Unknown,0,2013-03-02 01:56:00
5:16 PM,32.0,30.2,93,29.88,0.8,Calm,Calm,-,0.02,,Unknown,0,2013-03-02 02:16:00
5:36 PM,32.0,30.2,93,29.88,0.8,Calm,Calm,-,0.03,,Unknown,0,2013-03-02 02:36:00
5:56 PM,33.8,32.0,93,29.89,0.8,NNE,3.5,-,0.03,,Overcast,30,2013-03-02 02:56:00
6:16 PM,33.8,32.0,93,29.90,0.8,Calm,Calm,-,0.01,,Overcast,0,2013-03-02 03:16:00
6:36 PM,32.0,30.2,93,29.90,0.8,Calm,Calm,-,0.02,,Overcast,0,2013-03-02 03:36:00
6:56 PM,32.0,30.2,93,29.91,0.5,Calm,Calm,-,0.03,,Unknown,0,2013-03-02 03:56:00
7:16 PM,32.0,30.2,93,29.92,1.5,Calm,Calm,-,0.03,,Overcast,0,2013-03-02 04:16:00
7:36 PM,33.8,33.8,100,29.92,1.5,Calm,Calm,-,0.04,,Overcast,0,2013-03-02 04:36:00
7:56 PM,33.8,32.0,93,29.93,3.0,Calm,Calm,-,0.04,,Overcast,0,2013-03-02 04:56:00
8:16 PM,33.8,30.2,87,29.93,3.0,Calm,Calm,-,N/A,,Overcast,0,2013-03-02 05:16:00
8:36 PM,33.8,30.2,87,29.94,3.0,Calm,Calm,-,N/A,,Overcast,0,2013-03-02 05:36:00
8:56 PM,33.8,30.2,87,29.94,4.0,Calm,Calm,-,N/A,,Overcast,0,2013-03-02 05:56:00
9:16 PM,33.8,30.2,87,29.95,4.0,Calm,Calm,-,N/A,,Overcast,0,2013-03-02 06:16:00
9:36 PM,33.8,32.0,93,29.95,4.0,Calm,Calm,-,N/A,,Overcast,0,2013-03-02 06:36:00
9:56 PM,33.8,32.0,93,29.95,7.0,Calm,Calm,-,N/A,,Overcast,0,2013-03-02 06:56:00
10:16 PM,32.0,30.2,93,29.95,10.0,ESE,4.6,-,N/A,,Overcast,120,2013-03-02 07:16:00
10:36 PM,32.0,30.2,93,29.96,10.0,Calm,Calm,-,N/A,,Overcast,0,2013-03-02 07:36:00
10:56 PM,32.0,32.0,100,29.96,8.0,Calm,Calm,-,N/A,,Overcast,0,2013-03-02 07:56:00
11:16 PM,32.0,32.0,100,29.97,10.0,Calm,Calm,-,N/A,,Overcast,0,2013-03-02 08:16:00
11:36 PM,32.0,30.2,93,29.97,8.0,Calm,Calm,-,N/A,,Overcast,0,2013-03-02 08:36:00
11:56 PM,32.0,30.2,93,29.97,3.0,Calm,Calm,-,0.01,,Overcast,0,2013-03-02 08:56:00